Dewpoint
14 14 14 14 14 15 14 14 13 13 13 13 13 13 12 12 13 15 17 18 17 16 19 27 28 29 31 34 36 39 40 42 42 41 41 41 41 40 40 40 40 41
13 15 16 15 15 15 14 13 13 13 13 13 13 13 12 12 13 14 16 16 16 16 20 25 26 29 31 33 35 38 39 40 39 41 41 40 41 41 41 40 41 41
13 13 13 13 13 13 13 13 13 13 13 12 12 13 13 13 13 13 14 15 15 16 19 21 25 30 31 31 34 36 38 39 37 40 39 39 41 41 42 42 42 41
12 13 13 13 13 13 13 13 12 12 12 12 12 12 13 13 13 13 14 16 16 18 19 21 25 28 29 29 30 33 36 38 38 39 40 40 40 41 41 41 41 41
12 12 13 13 13 13 13 12 12 12 12 12 11 12 12 11 11 12 13 14 15 16 17 20 23 24 24 26 27 29 32 36 37 38 38 39 39 40 40 41 41 40
11 12 13 13 13 13 12 12 12 12 12 11 11 12 11 11 11 11 11 12 13 14 16 19 20 21 21 23 25 27 30 33 36 37 37 38 39 40 40 41 40 40
10 11 12 13 13 13 12 12 12 13 12 11 11 10 11 10 10 10 11 12 12 13 15 17 18 17 20 21 23 26 28 32 34 36 36 37 38 39 39 40 40 40
10 11 12 12 12 12 12 12 12 12 11 11 10 10 9 9 9 10 10 10 12 13 14 14 14 14 16 21 23 25 27 30 32 35 36 36 37 37 38 40 41 41
10 11 11 11 11 11 11 11 11 11 11 10 10 9 9 8 9 9 9 10 10 11 12 12 12 13 16 20 22 23 24 25 28 32 35 36 36 36 37 38 39 40
9 10 10 11 11 11 11 11 11 11 11 10 10 9 8 7 7 8 8 9 9 10 9 9 11 12 13 14 17 21 23 24 26 29 34 35 36 36 36 37 37 38
8 9 9 10 10 10 11 11 10 11 10 10 9 8 8 6 6 6 7 8 8 8 8 9 10 10 11 12 14 19 22 23 25 28 32 35 36 36 36 36 37 38
7 8 8 9 10 10 10 11 11 10 10 10 9 9 8 7 6 6 7 7 7 7 7 8 8 9 9 11 13 15 17 20 23 27 32 34 36 36 36 36 37 38
6 7 7 8 8 9 9 10 10 10 9 8 9 8 7 6 6 5 6 6 6 6 7 7 8 8 9 10 12 13 15 18 22 25 31 34 36 36 36 37 37 38
6 6 6 7 8 8 10 10 9 9 7 7 8 7 6 5 5 5 5 5 6 6 7 8 8 9 9 10 11 13 16 19 22 24 27 32 35 36 36 36 36 37
5 5 6 7 7 8 8 8 7 6 6 4 4 5 5 4 4 4 4 5 5 5 6 6 7 8 9 10 11 14 17 19 22 24 27 31 34 35 36 35 36 36
5 5 6 6 7 7 6 5 5 5 5 4 4 3 4 4 4 5 5 5 5 5 5 7 7 8 13 18 20 16 17 20 22 25 27 31 34 35 35 35 35 35
4 5 5 5 6 6 5 4 3 3 3 2 3 4 4 5 5 4 5 5 5 5 5 6 7 9 17 21 23 24 22 22 23 25 27 29 33 35 35 34 34 35
4 5 5 4 4 3 3 2 2 2 2 2 2 3 4 5 5 5 5 4 4 5 5 5 6 14 18 20 21 24 25 22 24 25 28 29 31 34 35 34 34 34
4 4 3 2 2 1 1 1 0 0 0 1 2 3 4 5 6 6 5 5 5 4 5 5 6 14 18 20 21 22 25 25 23 24 26 28 29 31 33 34 34 34
3 2 0 -1 -1 -1 -2 -1 -1 -1 -1 0 2 3 5 5 6 6 6 6 6 6 6 6 6 14 18 20 21 22 24 25 23 24 25 26 27 30 32 34 34 34
-0 -1 -2 -2 -3 -3 -3 -3 -2 -2 -1 1 2 3 5 6 6 6 7 7 7 8 9 9 8 17 19 20 22 24 25 25 22 24 25 25 26 28 30 33 34 34
-2 -2 -3 -4 -4 -4 -4 -4 -3 -2 -1 0 2 4 6 7 8 8 7 7 8 9 9 10 9 18 19 21 22 23 26 25 24 25 26 26 27 27 30 33 34 34
-3 -5 -6 -5 -5 -5 -5 -4 -3 -2 -0 2 3 5 6 7 8 8 8 9 9 10 10 10 11 15 19 21 22 24 24 23 25 26 27 27 27 27 29 32 34 34
-5 -6 -6 -6 -5 -6 -5 -4 -2 0 2 3 5 6 7 7 9 9 9 10 11 11 11 11 11 14 19 21 23 24 25 24 25 26 27 28 28 29 30 32 33 33
-6 -6 -6 -6 -6 -5 -4 -3 -1 1 3 5 5 5 5 6 8 9 10 12 12 12 16 14 13 15 19 21 22 24 24 25 26 27 28 29 29 29 31 32 33 33
-7 -7 -6 -6 -6 -5 -3 -1 2 1 1 1 3 4 4 5 7 9 10 11 13 13 13 13 13 13 16 21 23 24 25 24 26 26 26 27 29 29 30 31 32 33